DW8500 Weather Reports


Display with metric or nautical units.
time (UTC)temp
F
wind
direction
speed
MPH
gust
MPH
rain 1hr
in
rain 24hr
in
rain mn
in
humidity
%
barometer
mb
20260507033652 53 248 1.0 3.0 0.02 0.18 0.18 60 1006.9
20260507033212 54 359 0.0 4.0 0.02 0.18 0.18 60 1006.9
20260507032711 54 132 1.0 4.0 0.02 0.18 0.18 60 1006.7
20260507032209 54 260 0.0 5.0 0.02 0.18 0.18 60 1006.7
20260507031709 54 302 2.0 5.0 0.02 0.18 0.18 60 1006.7
20260507031621 53 297 1.0 5.0 0.02 0.18 0.18 60 1006.3
20260507031205 54 335 0.0 3.0 0.02 0.18 0.18 60 1006.5
20260507030704 54 285 1.0 3.0 0.02 0.18 0.18 60 1006.6
20260507030200 54 278 0.0 5.0 0.02 0.18 0.18 61 1006.4
20260507025659 55 266 1.0 5.0 0.02 0.18 0.18 61 1006.4
20260507025153 55 300 1.0 8.0 0.02 0.18 0.18 60 1006.3
20260507024653 55 236 2.0 8.0 0.01 0.17 0.17 60 1006.5
20260507024149 56 41 3.0 9.0 0.01 0.17 0.17 59 1006.6
20260507023712 56 214 3.0 9.0 0.00 0.16 0.16 59 1006.7
20260507023230 57 296 2.0 7.0 0.00 0.16 0.16 59 1006.8
20260507023124 57 323 1.0 9.0 0.00 0.16 0.16 59 1006.5
20260507022709 58 299 2.0 9.0 0.00 0.16 0.16 59 1006.6
20260507022205 58 19 3.0 9.0 0.00 0.16 0.16 61 1006.5
20260507021704 58 281 1.0 4.0 0.00 0.16 0.16 63 1006.3
20260507021200 59 218 1.0 4.0 0.00 0.16 0.16 63 1006.0
20260507020651 59 7 1.0 4.0 0.00 0.16 0.16 64 1005.9
20260507020150 59 265 1.0 3.0 0.00 0.16 0.16 64 1005.9
20260507015650 59 233 1.0 3.0 0.00 0.16 0.16 64 1006.0
20260507015148 59 230 0.0 5.0 0.00 0.16 0.16 64 1005.9
20260507014712 59 262 0.0 5.0 0.00 0.16 0.16 64 1006.0
20260507014626 58 262 0.0 5.0 0.00 0.16 0.16 64 1005.7
20260507014228 58 269 0.0 2.0 0.00 0.16 0.16 64 1005.9
20260507013705 58 51 0.0 2.0 0.00 0.16 0.16 64 1005.7
20260507013222 58 145 0.0 1.0 0.00 0.16 0.16 64 1005.8
20260507012702 58 145 0.0 1.0 0.00 0.16 0.16 64 1005.7
20260507012159 58 144 0.0 0.0 0.00 0.16 0.16 64 1005.7
20260507011654 58 144 0.0 0.0 0.00 0.16 0.16 64 1005.7
20260507011151 58 145 0.0 1.0 0.00 0.16 0.16 64 1005.7
20260507010651 58 144 0.0 1.0 0.00 0.16 0.16 64 1005.8
20260507010149 58 144 0.0 2.0 0.00 0.16 0.16 64 1005.7
20260507005650 58 86 0.0 2.0 0.00 0.16 0.16 64 1005.7
20260507005212 58 178 0.0 2.0 0.00 0.16 0.16 64 1005.7
20260507004708 58 188 0.0 2.0 0.00 0.16 0.16 64 1005.6
20260507004622 58 188 0.0 2.0 0.00 0.16 0.16 64 1005.2
20260507004204 58 272 0.0 5.0 0.00 0.16 0.16 64 1005.6
20260507003704 58 304 0.0 5.0 0.00 0.16 0.16 64 1005.5
20260507003201 58 104 0.0 1.0 0.00 0.16 0.16 64 1005.4
20260507002713 58 133 0.0 4.0 0.00 0.16 0.16 64 1005.2
20260507002151 58 126 0.0 4.0 0.00 0.16 0.16 64 1005.1
20260507001713 58 116 0.0 2.0 0.00 0.16 0.16 64 1005.1
20260507001210 58 118 0.0 2.0 0.00 0.16 0.16 64 1005.2
20260507000752 58 141 0.0 2.0 0.00 0.16 0.16 64 1005.4
20260507000205 58 299 0.0 3.0 0.00 0.16 0.16 64 1005.3
20260507000118 58 299 0.0 3.0 0.00 0.16 0.16 63 1004.9
20260506235704 58 84 1.0 3.0 0.00 0.16 0.16 64 1005.3
20260506235219 58 113 0.0 5.0 0.00 0.16 0.16 63 1005.2
20260506234654 59 240 1.0 5.0 0.01 0.16 0.16 63 1005.3
20260506234152 59 137 0.0 3.0 0.01 0.16 0.16 63 1005.2
20260506233653 59 243 0.0 3.0 0.01 0.16 0.16 63 1005.2
20260506233152 59 252 1.0 3.0 0.01 0.16 0.16 63 1005.1
20260506232652 59 239 0.0 2.0 0.01 0.16 0.16 63 1005.2
20260506232149 59 137 0.0 3.0 0.01 0.16 0.16 63 1005.0
20260506231649 59 135 0.0 3.0 0.01 0.16 0.16 63 1004.8
20260506231209 59 231 0.0 4.0 0.01 0.16 0.16 63 1004.9
20260506230708 59 131 0.0 6.0 0.01 0.16 0.16 63 1004.9
20260506230225 59 25 0.0 6.0 0.01 0.16 0.16 63 1004.9
20260506230117 58 162 0.0 6.0 0.01 0.16 0.16 63 1004.7
20260506225659 59 110 0.0 4.0 0.01 0.16 0.16 63 1005.0
20260506225214 59 27 0.0 1.0 0.01 0.16 0.16 63 1005.2
20260506224654 59 117 0.0 1.0 0.00 0.15 0.15 63 1005.2
20260506224150 59 115 0.0 4.0 0.00 0.15 0.15 63 1005.2
20260506223651 59 134 1.0 4.0 0.00 0.15 0.15 63 1005.3
20260506223211 59 262 0.0 4.0 0.00 0.15 0.15 63 1005.2
20260506223128 58 262 0.0 4.0 0.00 0.15 0.15 63 1004.8
20260506222647 59 155 0.0 4.0 0.00 0.15 0.15 63 1005.2
20260506222209 59 114 0.0 2.0 0.00 0.15 0.15 62 1005.2
20260506221709 59 193 0.0 3.0 0.00 0.15 0.15 62 1005.3
20260506221624 58 214 0.0 3.0 0.00 0.15 0.15 62 1004.8
20260506221206 59 120 1.0 4.0 0.01 0.15 0.15 62 1005.3
20260506220705 59 303 1.0 5.0 0.01 0.15 0.15 62 1005.4
20260506215711 59 101 0.0 3.0 0.02 0.15 0.15 62 1005.3
20260506215227 59 86 1.0 4.0 0.02 0.15 0.15 62 1005.4
20260506214719 59 259 1.0 7.0 0.02 0.15 0.15 62 1005.4
20260506214153 59 127 1.0 7.0 0.02 0.15 0.15 62 1005.4
20260506213658 59 175 1.0 6.0 0.03 0.15 0.15 62 1005.4
20260506213158 59 127 1.0 2.0 0.03 0.15 0.15 62 1005.5
20260506212659 59 112 1.0 2.0 0.04 0.15 0.15 62 1005.5
20260506212213 59 243 0.0 4.0 0.05 0.15 0.15 61 1005.5
20260506211733 60 179 1.0 4.0 0.05 0.15 0.15 61 1005.5
20260506211628 59 236 0.0 4.0 0.06 0.15 0.15 61 1005.0
20260506211230 60 252 1.0 3.0 0.05 0.14 0.14 61 1005.6
20260506210707 60 96 1.0 6.0 0.05 0.14 0.14 61 1005.6
20260506210243 60 129 1.0 6.0 0.05 0.14 0.14 61 1005.6
20260506205658 60 153 1.0 5.0 0.04 0.13 0.13 60 1005.6
20260506205157 60 177 1.0 8.0 0.05 0.13 0.13 60 1005.7
20260506204654 60 120 1.0 4.0 0.05 0.13 0.13 60 1005.7
20260506203653 61 224 1.0 5.0 0.05 0.12 0.12 59 1005.8
20260506203147 61 251 1.0 2.0 0.05 0.12 0.12 59 1005.8
20260506202712 61 231 1.0 3.0 0.04 0.11 0.11 58 1005.8
20260506202208 61 306 1.0 3.0 0.03 0.10 0.10 57 1005.9
20260506201706 61 124 1.0 3.0 0.02 0.09 0.10 57 1005.9
20260506201620 61 122 1.0 3.0 0.02 0.09 0.09 57 1005.4
20260506201205 61 288 1.0 3.0 0.02 0.09 0.09 56 1005.9
20260506200725 61 125 0.0 3.0 0.02 0.09 0.09 56 1005.9
20260506200202 61 144 0.0 4.0 0.02 0.09 0.09 55 1006.0
20260506195723 61 105 1.0 4.0 0.02 0.09 0.09 55 1006.0
20260506195200 61 101 0.0 4.0 0.02 0.08 0.08 55 1006.1
20260506194702 61 140 1.0 4.0 0.02 0.08 0.08 55 1006.2
20260506194153 61 92 0.0 4.0 0.01 0.07 0.07 55 1006.2
20260506193658 61 128 1.0 4.0 0.01 0.07 0.07 55 1006.3
20260506193157 61 217 2.0 6.0 0.01 0.07 0.07 55 1006.4
20260506192657 61 231 1.0 6.0 0.01 0.07 0.07 55 1006.4
20260506192213 61 144 0.0 7.0 0.02 0.07 0.07 55 1006.3
20260506191713 62 255 1.0 7.0 0.02 0.07 0.07 55 1006.1
20260506191150 62 231 1.0 4.0 0.03 0.07 0.07 56 1006.1
20260506190653 62 117 0.0 1.0 0.03 0.07 0.07 56 1006.0
20260506190152 61 117 0.0 2.0 0.04 0.07 0.07 56 1005.9
20260506185652 61 25 1.0 3.0 0.04 0.07 0.07 56 1006.0
20260506185149 62 118 1.0 5.0 0.04 0.06 0.06 56 1006.3
20260506184707 62 98 1.0 5.0 0.05 0.06 0.06 56 1006.4
20260506184627 61 76 0.0 3.0 0.05 0.06 0.06 56 1005.9
20260506184203 61 142 0.0 3.0 0.06 0.06 0.06 57 1006.5
20260506183702 62 115 0.0 1.0 0.06 0.06 0.06 57 1006.5
20260506183221 62 67 0.0 3.0 0.06 0.06 0.06 58 1006.5
20260506182701 62 40 1.0 3.0 0.06 0.06 0.06 59 1006.7
20260506182159 62 150 0.0 4.0 0.05 0.05 0.05 63 1006.9
20260506181659 62 147 1.0 5.0 0.05 0.05 0.05 63 1006.9
20260506181151 62 164 0.0 5.0 0.04 0.04 0.04 64 1007.0
20260506180650 62 339 1.0 5.0 0.04 0.04 0.04 64 1007.2
20260506180210 63 238 1.0 5.0 0.03 0.03 0.03 64 1007.3
20260506180122 62 238 0.0 5.0 0.03 0.03 0.03 64 1006.8
20260506175704 63 314 1.0 5.0 0.02 0.02 0.02 64 1007.2
20260506175200 64 154 1.0 6.0 0.02 0.02 0.02 63 1007.4
20260506174659 65 303 1.0 11.0 0.01 0.01 0.01 60 1007.6
20260506174153 65 262 3.0 10.0 0.00 0.00 0.00 58 1007.6
20260506173657 66 153 5.0 10.0 0.00 0.00 0.00 55 1007.6
20260506173150 67 65 2.0 10.0 0.00 0.00 0.00 53 1007.4
20260506172651 68 98 3.0 9.0 0.00 0.00 0.00 52 1007.4
20260506172212 68 241 3.0 11.0 0.00 0.00 0.00 50 1007.2
20260506171729 69 191 4.0 11.0 0.00 0.00 0.00 49 1007.2
20260506171620 68 279 2.0 9.0 0.00 0.00 0.00 49 1006.6
20260506171201 69 110 3.0 12.0 0.00 0.00 0.00 48 1007.1
20260506170702 69 27 4.0 16.0 0.00 0.00 0.00 48 1007.1
20260506170152 69 272 3.0 16.0 0.00 0.00 0.00 48 1007.2
20260506165652 70 233 4.0 16.0 0.00 0.00 0.00 47 1007.3
20260506165213 70 94 3.0 13.0 0.00 0.00 0.00 47 1007.2
20260506164648 70 311 4.0 11.0 0.00 0.00 0.00 47 1007.4
20260506164147 70 185 3.0 11.0 0.00 0.00 0.00 47 1007.4
20260506163649 70 139 4.0 14.0 0.00 0.00 0.00 47 1007.4
20260506163231 70 268 5.0 14.0 0.00 0.00 0.00 46 1007.4
20260506163125 70 222 6.0 14.0 0.00 0.00 0.00 46 1006.9
20260506162646 70 138 1.0 4.0 0.00 0.00 0.00 47 1007.5
20260506161658 70 129 2.0 9.0 0.00 0.00 0.00 47 1007.6
20260506161151 70 121 3.0 11.0 0.00 0.00 0.00 47 1007.8
20260506160656 70 281 2.0 11.0 0.00 0.00 0.00 47 1007.7
20260506160210 71 143 2.0 6.0 0.00 0.00 0.00 47 1007.7
20260506160128 70 276 1.0 6.0 0.00 0.00 0.00 47 1007.1
20260506155708 70 122 3.0 7.0 0.00 0.00 0.00 47 1007.7
20260506155225 70 285 3.0 8.0 0.00 0.00 0.00 48 1007.9
20260506154704 70 142 2.0 8.0 0.00 0.00 0.00 49 1008.0
20260506154200 70 274 3.0 9.0 0.00 0.00 0.00 48 1008.1
20260506153701 70 138 3.0 9.0 0.00 0.00 0.00 49 1008.2
20260506153158 69 196 2.0 7.0 0.00 0.00 0.00 50 1008.1
20260506152701 69 129 2.0 4.0 0.00 0.00 0.00 51 1008.1
20260506152159 69 148 2.0 4.0 0.00 0.00 0.00 51 1008.3
20260506151720 69 127 1.0 4.0 0.00 0.00 0.00 51 1008.5
20260506151210 69 98 2.0 4.0 0.00 0.00 0.00 51 1008.5
20260506150651 69 149 1.0 5.0 0.00 0.00 0.00 51 1008.4
20260506150208 69 192 2.0 5.0 0.00 0.00 0.00 51 1008.6
20260506145648 69 279 2.0 10.0 0.00 0.00 0.00 50 1008.7
20260506145208 69 117 2.0 10.0 0.00 0.00 0.00 51 1008.4
20260506144708 69 308 2.0 6.0 0.00 0.00 0.00 51 1008.3
20260506144622 68 70 2.0 6.0 0.00 0.00 0.00 52 1007.8
20260506144202 68 219 3.0 6.0 0.00 0.00 0.00 51 1008.5
20260506143702 68 231 2.0 8.0 0.00 0.00 0.00 52 1008.6
20260506143219 68 250 3.0 11.0 0.00 0.00 0.00 52 1008.6
20260506142652 68 223 4.0 11.0 0.00 0.00 0.00 51 1008.6
20260506142150 68 243 3.0 7.0 0.00 0.00 0.00 53 1008.4
20260506141651 68 126 1.0 7.0 0.00 0.00 0.00 53 1008.4
20260506141149 68 279 2.0 10.0 0.00 0.00 0.00 53 1008.3
20260506140650 68 257 1.0 10.0 0.00 0.00 0.00 53 1008.5
20260506140149 68 236 1.0 4.0 0.00 0.00 0.00 53 1008.3
20260506135649 68 233 1.0 4.0 0.00 0.00 0.00 53 1008.1
20260506135207 67 312 1.0 5.0 0.00 0.00 0.00 54 1008.2
20260506134728 67 248 1.0 10.0 0.00 0.00 0.00 55 1008.2
20260506134621 66 248 1.0 10.0 0.00 0.00 0.00 55 1007.7
20260506134203 67 216 1.0 10.0 0.00 0.00 0.00 54 1008.3
20260506133700 66 126 1.0 3.0 0.00 0.00 0.00 55 1008.4
20260506133231 66 105 1.0 4.0 0.00 0.00 0.00 56 1008.5
20260506133129 66 127 0.0 4.0 0.00 0.00 0.00 56 1008.0
20260506132649 66 203 1.0 5.0 0.00 0.00 0.00 56 1008.6
20260506132230 66 124 2.0 5.0 0.00 0.00 0.00 56 1008.5
20260506131706 66 128 1.0 2.0 0.00 0.00 0.00 57 1008.5
20260506131621 65 129 0.0 2.0 0.00 0.00 0.00 57 1008.1
20260506131223 66 233 0.0 2.0 0.00 0.00 0.00 57 1008.7
20260506130702 65 131 0.0 2.0 0.00 0.00 0.00 58 1008.8
20260506130201 65 113 0.0 1.0 0.00 0.00 0.00 58 1008.8
20260506125700 65 113 0.0 1.0 0.00 0.00 0.00 58 1008.8
20260506125235 65 113 0.0 1.0 0.00 0.00 0.00 58 1008.7
20260506124648 65 113 0.0 1.0 0.00 0.00 0.00 58 1008.8
20260506124146 64 109 0.0 1.0 0.00 0.00 0.00 58 1008.9
20260506123732 64 134 0.0 7.0 0.00 0.00 0.00 58 1008.9
20260506123206 64 131 2.0 7.0 0.00 0.00 0.00 58 1009.0
20260506123121 63 86 1.0 7.0 0.00 0.00 0.00 59 1008.5
20260506122707 63 150 0.0 2.0 0.00 0.00 0.00 59 1008.8
20260506122204 63 120 0.0 1.0 0.00 0.00 0.00 60 1008.9
20260506121723 62 120 0.0 2.0 0.00 0.00 0.00 60 1008.7
20260506121159 62 117 0.0 6.0 0.00 0.00 0.00 60 1008.8
20260506120652 62 148 1.0 6.0 0.00 0.00 0.00 60 1008.9
20260506120149 62 193 1.0 4.0 0.00 0.00 0.00 60 1009.1
20260506115647 62 113 1.0 7.0 0.00 0.00 0.00 61 1009.2
20260506115146 61 246 0.0 1.0 0.00 0.00 0.00 61 1009.2
20260506114647 61 132 0.0 4.0 0.00 0.00 0.00 62 1009.1
20260506114146 60 136 1.0 4.0 0.00 0.00 0.00 62 1009.2
20260506113710 60 153 0.0 4.0 0.00 0.00 0.00 62 1009.3
20260506113121 60 126 0.0 4.0 0.00 0.00 0.00 62 1008.8
20260506112705 60 122 0.0 1.0 0.00 0.00 0.00 62 1009.4
20260506112201 60 260 0.0 2.0 0.00 0.00 0.00 62 1009.3
20260506111700 59 146 0.0 2.0 0.00 0.00 0.00 62 1009.4
20260506111159 59 153 0.0 0.0 0.00 0.00 0.00 63 1009.4
20260506110714 59 153 0.0 2.0 0.00 0.00 0.00 63 1009.5
20260506110150 59 150 0.0 2.0 0.00 0.00 0.00 63 1009.3
20260506105651 59 165 0.0 0.0 0.00 0.00 0.00 63 1009.4
20260506105149 59 165 0.0 1.0 0.00 0.00 0.00 63 1009.3
20260506104710 58 198 0.0 1.0 0.00 0.00 0.00 63 1009.3
20260506104230 58 144 0.0 1.0 0.00 0.00 0.00 63 1009.4
20260506103646 58 145 0.0 1.0 0.00 0.00 0.00 63 1009.4
20260506103206 58 154 0.0 0.0 0.00 0.00 0.00 63 1009.3
20260506103124 58 154 0.0 0.0 0.00 0.00 0.00 63 1009.0
20260506102706 58 154 0.0 0.0 0.00 0.00 0.00 63 1009.3
20260506102158 58 155 0.0 0.0 0.00 0.00 0.00 63 1009.4
20260506101659 58 152 0.0 1.0 0.00 0.00 0.00 62 1009.2
20260506101152 59 152 0.0 2.0 0.00 0.00 0.00 62 1009.2
20260506100657 58 153 0.0 2.0 0.00 0.00 0.00 62 1009.1
20260506100151 58 145 0.0 1.0 0.00 0.00 0.00 62 1009.2
20260506095656 58 145 0.0 1.0 0.00 0.00 0.00 62 1009.3
20260506095151 58 158 0.0 1.0 0.00 0.00 0.00 62 1009.2
20260506094651 58 163 0.0 1.0 0.00 0.00 0.00 62 1009.3
20260506094150 59 157 0.0 2.0 0.00 0.00 0.00 62 1009.2
20260506093649 59 217 0.0 2.0 0.00 0.00 0.00 62 1009.1
20260506093210 59 165 0.0 3.0 0.00 0.00 0.00 61 1009.2
20260506093120 58 165 0.0 3.0 0.00 0.00 0.00 61 1008.7
20260506092707 59 131 1.0 3.0 0.00 0.00 0.00 61 1009.1
20260506092159 59 165 0.0 3.0 0.00 0.00 0.00 61 1009.1
20260506091659 59 113 1.0 3.0 0.00 0.00 0.00 61 1009.0
20260506091156 59 94 0.0 4.0 0.00 0.00 0.00 61 1009.3
20260506090734 59 142 1.0 4.0 0.00 0.00 0.00 61 1009.2
20260506090146 58 238 1.0 2.0 0.00 0.00 0.00 62 1009.1
20260506085709 58 200 0.0 4.0 0.00 0.00 0.00 62 1009.1
20260506085226 58 175 0.0 4.0 0.00 0.00 0.00 62 1009.1
20260506084706 57 236 0.0 0.0 0.00 0.00 0.00 62 1009.4
20260506084618 57 238 0.0 0.0 0.00 0.00 0.00 62 1008.8
20260506083658 58 238 0.0 1.0 0.00 0.00 0.00 61 1009.3
20260506083153 58 238 0.0 1.0 0.00 0.00 0.00 61 1009.3
20260506082657 58 238 0.0 0.0 0.00 0.00 0.00 61 1009.4
20260506082150 58 238 0.0 0.0 0.00 0.00 0.00 61 1009.3
20260506081651 58 238 0.0 1.0 0.00 0.00 0.00 60 1009.3
20260506081149 58 238 0.0 1.0 0.00 0.00 0.00 60 1009.2
20260506080649 59 238 0.0 0.0 0.00 0.00 0.00 59 1009.1
20260506080147 59 238 0.0 1.0 0.00 0.00 0.00 59 1009.2
20260506073151 60 258 0.0 1.0 0.00 0.00 0.00 57 1009.1
20260506072649 60 258 0.0 1.0 0.00 0.00 0.00 56 1009.2
20260506072149 60 245 0.0 1.0 0.00 0.00 0.00 56 1009.1
20260506071649 61 245 0.0 1.0 0.00 0.00 0.00 56 1009.1
20260506071147 61 245 0.0 1.0 0.00 0.00 0.00 56 1009.0
20260506070648 61 205 0.0 3.0 0.00 0.00 0.00 56 1008.9
20260506070147 61 223 1.0 3.0 0.00 0.00 0.00 55 1009.0
20260506062145 61 136 0.0 1.0 0.00 0.00 0.00 53 1008.7
20260506061647 62 136 0.0 1.0 0.00 0.00 0.00 53 1008.8
20260506061227 62 136 0.0 1.0 0.00 0.00 0.00 52 1008.8
20260506060725 63 136 0.0 1.0 0.00 0.00 0.00 51 1008.8
20260506060256 63 171 0.0 2.0 0.00 0.00 0.00 51 1008.8
20260506051305 63 260 0.0 4.0 0.00 0.00 0.00 51 1008.8
20260506050803 63 118 0.0 4.0 0.00 0.00 0.00 51 1008.8
20260506050257 62 91 0.0 2.0 0.00 0.00 0.00 51 1008.9
20260506044755 62 158 0.0 0.0 0.00 0.00 0.00 51 1009.1
20260506044255 62 158 0.0 1.0 0.00 0.00 0.00 51 1009.1
20260506043754 63 158 0.0 1.0 0.00 0.00 0.00 50 1009.1
20260506043254 63 198 0.0 1.0 0.00 0.00 0.00 50 1009.1
20260506042756 63 198 0.0 0.0 0.00 0.00 0.00 49 1009.1
20260506042314 64 238 0.0 2.0 0.00 0.00 0.00 49 1009.1
20260506041753 64 116 0.0 2.0 0.00 0.00 0.00 48 1009.0
20260506041513 64 274 0.0 1.0 0.00 0.00 0.00 48 1008.7
20260506041307 64 155 0.0 2.0 0.00 0.00 0.00 48 1009.1
20260506040804 64 153 0.0 2.0 0.00 0.00 0.00 47 1009.1
20260506040258 65 243 0.0 2.0 0.00 0.00 0.00 47 1009.0
20260506035756 65 148 0.0 4.0 0.00 0.00 0.00 47 1009.1
20260506035255 65 280 0.0 5.0 0.00 0.00 0.00 46 1009.1
20260506034756 65 231 1.0 5.0 0.00 0.00 0.00 46 1009.1
20260506034253 65 129 1.0 3.0 0.00 0.00 0.00 46 1009.1